Time,TemperatureF,DewpointF,PressureIn,WindDirection,WindDirectionDegrees,WindSpeedMPH,WindSpeedGustMPH,Humidity,HourlyPrecipIn,Conditions,Clouds,dailyrainin,SoftwareType,DateUTC
2013-12-29 00:12:00,14.0,5.0,30.30,North,360,14.0,26.0,68,0.00,,,0.00,,2013-12-29 06:12:00,
2013-12-29 00:22:00,14.0,6.0,30.30,NNE,13,12.0,23.0,69,0.00,,,0.00,,2013-12-29 06:22:00,
2013-12-29 00:43:00,14.0,5.0,30.30,NNE,30,13.0,20.0,68,0.00,,,0.00,,2013-12-29 06:43:00,
2013-12-29 00:52:00,14.0,5.0,30.32,North,9,14.0,21.0,67,0.00,,,0.00,,2013-12-29 06:52:00,
2013-12-29 01:12:00,14.0,5.0,30.32,NNE,17,13.0,22.0,67,0.00,,,0.00,,2013-12-29 07:12:00,
2013-12-29 01:22:00,13.0,4.0,30.32,NNE,14,13.0,20.0,68,0.00,,,0.00,,2013-12-29 07:22:00,
2013-12-29 01:42:00,13.0,4.0,30.33,North,350,12.0,23.0,68,0.00,,,0.00,,2013-12-29 07:42:00,
2013-12-29 01:52:00,13.0,4.0,30.33,North,360,11.0,20.0,67,0.00,,,0.00,,2013-12-29 07:52:00,
2013-12-29 02:22:00,12.0,3.0,30.35,NE,45,11.0,22.0,67,0.00,,,0.00,,2013-12-29 08:22:00,
2013-12-29 02:42:00,12.0,3.0,30.36,North,355,8.0,17.0,67,0.00,,,0.00,,2013-12-29 08:42:00,
2013-12-29 02:52:00,11.0,2.0,30.37,NNE,12,9.0,17.0,67,0.00,,,0.00,,2013-12-29 08:52:00,
2013-12-29 03:12:00,10.0,2.0,30.38,North,360,12.0,19.0,68,0.00,,,0.00,,2013-12-29 09:12:00,
2013-12-29 03:22:00,10.0,2.0,30.38,North,5,7.0,14.0,69,0.00,,,0.00,,2013-12-29 09:22:00,
2013-12-29 03:43:00,10.0,2.0,30.38,NNW,338,9.0,18.0,69,0.00,,,0.00,,2013-12-29 09:43:00,
2013-12-29 03:53:00,10.0,2.0,30.38,North,5,8.0,16.0,70,0.00,,,0.00,,2013-12-29 09:53:00,
2013-12-29 04:13:00,10.0,2.0,30.37,North,5,9.0,15.0,70,0.00,,,0.00,,2013-12-29 10:13:00,
2013-12-29 04:23:00,9.0,1.0,30.39,NNE,13,8.0,13.0,70,0.00,,,0.00,,2013-12-29 10:23:00,
2013-12-29 04:53:00,9.0,1.0,30.39,NW,304,7.0,15.0,70,0.00,,,0.00,,2013-12-29 10:53:00,
2013-12-29 05:12:00,8.0,1.0,30.39,North,355,6.0,12.0,71,0.00,,,0.00,,2013-12-29 11:12:00,
2013-12-29 05:22:00,8.0,1.0,30.40,North,360,7.0,11.0,72,0.00,,,0.00,,2013-12-29 11:22:00,
2013-12-29 05:42:00,8.0,1.0,30.40,NNW,348,7.0,13.0,72,0.00,,,0.00,,2013-12-29 11:42:00,
2013-12-29 05:53:00,7.0,0.0,30.41,North,5,6.0,13.0,73,0.00,,,0.00,,2013-12-29 11:53:00,
2013-12-29 06:11:00,7.0,0.0,30.41,NNE,28,5.0,10.0,74,0.00,,,0.00,,2013-12-29 12:11:00,
2013-12-29 06:22:00,7.0,0.0,30.42,North,5,8.0,15.0,74,0.00,,,0.00,,2013-12-29 12:22:00,
2013-12-29 06:42:00,7.0,1.0,30.42,North,5,5.0,15.0,75,0.00,,,0.00,,2013-12-29 12:42:00,
2013-12-29 06:52:00,7.0,1.0,30.42,North,350,4.0,14.0,75,0.00,,,0.00,,2013-12-29 12:52:00,
2013-12-29 07:11:00,7.0,1.0,30.43,North,355,3.0,8.0,76,0.00,,,0.00,,2013-12-29 13:11:00,
2013-12-29 07:22:00,7.0,1.0,30.43,NNW,346,3.0,10.0,76,0.00,,,0.00,,2013-12-29 13:22:00,
2013-12-29 07:42:00,7.0,1.0,30.44,North,351,7.0,11.0,75,0.00,,,0.00,,2013-12-29 13:42:00,
2013-12-29 07:53:00,7.0,1.0,30.44,North,5,5.0,9.0,75,0.00,,,0.00,,2013-12-29 13:53:00,
2013-12-29 08:11:00,6.0,0.0,30.44,North,5,5.0,14.0,75,0.00,,,0.00,,2013-12-29 14:11:00,
2013-12-29 08:22:00,6.0,0.0,30.45,North,360,2.0,7.0,76,0.00,,,0.00,,2013-12-29 14:22:00,
2013-12-29 08:52:00,5.0,-1.0,30.45,North,5,1.0,7.0,77,0.00,,,0.00,,2013-12-29 14:52:00,
2013-12-29 09:11:00,5.0,0.0,30.45,NNW,342,1.0,7.0,78,0.00,,,0.00,,2013-12-29 15:11:00,
2013-12-29 09:21:00,6.0,1.0,30.46,NW,307,1.0,6.0,79,0.00,,,0.00,,2013-12-29 15:21:00,
2013-12-29 09:44:00,7.0,1.0,30.46,North,360,4.0,9.0,77,0.00,,,0.00,,2013-12-29 15:44:00,
2013-12-29 09:53:00,8.0,2.0,30.46,NNE,24,5.0,11.0,75,0.00,,,0.00,,2013-12-29 15:53:00,
2013-12-29 10:13:00,8.0,1.0,30.47,North,360,5.0,12.0,72,0.00,,,0.00,,2013-12-29 16:13:00,
2013-12-29 10:23:00,9.0,1.0,30.47,North,5,6.0,11.0,70,0.00,,,0.00,,2013-12-29 16:23:00,
2013-12-29 10:43:00,10.0,2.0,30.47,NNE,18,7.0,12.0,68,0.00,,,0.00,,2013-12-29 16:43:00,
2013-12-29 10:53:00,10.0,2.0,30.47,NNE,18,7.0,12.0,68,0.00,,,0.00,,2013-12-29 16:53:00,
2013-12-29 11:12:00,11.0,2.0,30.47,North,5,3.0,9.0,66,0.00,,,0.00,,2013-12-29 17:12:00,
2013-12-29 11:22:00,12.0,2.0,30.47,North,5,6.0,11.0,63,0.00,,,0.00,,2013-12-29 17:22:00,
2013-12-29 11:42:00,13.0,2.0,30.47,North,355,5.0,12.0,62,0.00,,,0.00,,2013-12-29 17:42:00,
2013-12-29 11:52:00,13.0,2.0,30.46,North,5,5.0,12.0,61,0.00,,,0.00,,2013-12-29 17:52:00,
2013-12-29 12:12:00,14.0,3.0,30.45,North,5,4.0,10.0,60,0.00,,,0.00,,2013-12-29 18:12:00,
2013-12-29 12:21:00,15.0,3.0,30.43,NNW,329,3.0,9.0,57,0.00,,,0.00,,2013-12-29 18:21:00,
2013-12-29 12:42:00,16.0,3.0,30.43,North,5,3.0,9.0,57,0.00,,,0.00,,2013-12-29 18:42:00,
2013-12-29 12:53:00,17.0,3.0,30.42,NNE,22,5.0,11.0,54,0.00,,,0.00,,2013-12-29 18:53:00,
2013-12-29 13:11:00,17.0,3.0,30.41,North,355,4.0,11.0,53,0.00,,,0.00,,2013-12-29 19:11:00,
2013-12-29 13:21:00,18.0,3.0,30.41,North,9,3.0,11.0,52,0.00,,,0.00,,2013-12-29 19:21:00,
2013-12-29 13:43:00,19.0,4.0,30.40,North,360,3.0,11.0,52,0.00,,,0.00,,2013-12-29 19:43:00,
2013-12-29 13:52:00,19.0,4.0,30.40,NE,40,5.0,11.0,51,0.00,,,0.00,,2013-12-29 19:52:00,
2013-12-29 14:11:00,20.0,5.0,30.39,WNW,298,1.0,10.0,51,0.00,,,0.00,,2013-12-29 20:11:00,
2013-12-29 14:22:00,20.0,4.0,30.39,NNE,16,1.0,7.0,50,0.00,,,0.00,,2013-12-29 20:22:00,
2013-12-29 14:42:00,21.0,5.0,30.39,North,355,2.0,7.0,49,0.00,,,0.00,,2013-12-29 20:42:00,
2013-12-29 14:53:00,21.0,4.0,30.38,NNE,14,2.0,8.0,48,0.00,,,0.00,,2013-12-29 20:53:00,
2013-12-29 15:12:00,22.0,5.0,30.37,West,259,1.0,5.0,48,0.00,,,0.00,,2013-12-29 21:12:00,
2013-12-29 15:22:00,23.0,6.0,30.37,NNE,19,2.0,5.0,47,0.00,,,0.00,,2013-12-29 21:22:00,
2013-12-29 15:43:00,22.0,5.0,30.36,North,351,0.0,4.0,47,0.00,,,0.00,,2013-12-29 21:43:00,
2013-12-29 15:53:00,24.0,6.0,30.36,WNW,288,0.0,3.0,46,0.00,,,0.00,,2013-12-29 21:53:00,
2013-12-29 16:12:00,24.0,6.0,30.36,WSW,258,0.0,3.0,45,0.00,,,0.00,,2013-12-29 22:12:00,
2013-12-29 16:23:00,25.0,7.0,30.35,WSW,245,0.0,2.0,45,0.00,,,0.00,,2013-12-29 22:23:00,
2013-12-29 16:42:00,24.0,5.0,30.35,West,269,1.0,5.0,44,0.00,,,0.00,,2013-12-29 22:42:00,
2013-12-29 16:52:00,24.0,6.0,30.34,West,268,0.0,3.0,46,0.00,,,0.00,,2013-12-29 22:52:00,
2013-12-29 17:12:00,24.0,6.0,30.33,South,182,1.0,4.0,46,0.00,,,0.00,,2013-12-29 23:12:00,
2013-12-29 17:22:00,23.0,5.0,30.34,South,180,1.0,4.0,46,0.00,,,0.00,,2013-12-29 23:22:00,
2013-12-29 17:42:00,22.0,5.0,30.33,SE,135,0.0,3.0,48,0.00,,,0.00,,2013-12-29 23:42:00,
2013-12-29 17:53:00,21.0,5.0,30.33,SE,135,0.0,3.0,50,0.00,,,0.00,,2013-12-29 23:53:00,
2013-12-29 18:12:00,21.0,5.0,30.33,SE,135,1.0,4.0,50,0.00,,,0.00,,2013-12-30 00:12:00,
2013-12-29 18:22:00,20.0,5.0,30.32,SE,135,1.0,4.0,51,0.00,,,0.00,,2013-12-30 00:22:00,
2013-12-29 18:42:00,20.0,5.0,30.32,SE,135,1.0,4.0,52,0.00,,,0.00,,2013-12-30 00:42:00,
2013-12-29 18:53:00,19.0,5.0,30.31,SE,132,0.0,3.0,54,0.00,,,0.00,,2013-12-30 00:53:00,
2013-12-29 19:11:00,19.0,5.0,30.29,SE,133,3.0,7.0,54,0.00,,,0.00,,2013-12-30 01:11:00,
2013-12-29 19:22:00,19.0,6.0,30.29,SE,130,4.0,8.0,55,0.00,,,0.00,,2013-12-30 01:22:00,
2013-12-29 19:42:00,19.0,5.0,30.28,SE,130,3.0,10.0,54,0.00,,,0.00,,2013-12-30 01:42:00,
2013-12-29 19:52:00,18.0,5.0,30.28,SE,137,3.0,7.0,55,0.00,,,0.00,,2013-12-30 01:52:00,
2013-12-29 20:11:00,18.0,5.0,30.27,SE,132,3.0,5.0,56,0.00,,,0.00,,2013-12-30 02:11:00,
2013-12-29 20:22:00,18.0,5.0,30.27,SE,132,3.0,5.0,56,0.00,,,0.00,,2013-12-30 02:22:00,
2013-12-29 20:42:00,18.0,5.0,30.27,SE,130,2.0,7.0,57,0.00,,,0.00,,2013-12-30 02:42:00,
2013-12-29 20:52:00,18.0,5.0,30.26,SE,127,4.0,8.0,57,0.00,,,0.00,,2013-12-30 02:52:00,
2013-12-29 21:12:00,17.0,5.0,30.26,SE,130,4.0,7.0,58,0.00,,,0.00,,2013-12-30 03:12:00,
2013-12-29 21:21:00,17.0,5.0,30.26,ESE,119,3.0,9.0,58,0.00,,,0.00,,2013-12-30 03:21:00,
2013-12-29 21:43:00,17.0,5.0,30.26,SE,132,2.0,5.0,58,0.00,,,0.00,,2013-12-30 03:43:00,
2013-12-29 21:54:00,17.0,5.0,30.26,SE,132,2.0,5.0,59,0.00,,,0.00,,2013-12-30 03:54:00,
2013-12-29 22:13:00,17.0,5.0,30.24,SE,136,4.0,9.0,59,0.00,,,0.00,,2013-12-30 04:13:00,
2013-12-29 22:23:00,17.0,5.0,30.23,SE,125,5.0,10.0,59,0.00,,,0.00,,2013-12-30 04:23:00,
2013-12-29 22:43:00,17.0,6.0,30.23,SE,125,0.0,8.0,60,0.00,,,0.00,,2013-12-30 04:43:00,
2013-12-29 22:52:00,18.0,6.0,30.23,SE,130,3.0,6.0,60,0.00,,,0.00,,2013-12-30 04:52:00,
2013-12-29 23:12:00,18.0,6.0,30.23,SE,130,3.0,9.0,59,0.00,,,0.00,,2013-12-30 05:12:00,
2013-12-29 23:23:00,18.0,6.0,30.22,SE,130,2.0,7.0,59,0.00,,,0.00,,2013-12-30 05:23:00,
2013-12-29 23:43:00,18.0,6.0,30.22,SSE,163,0.0,6.0,60,0.00,,,0.00,,2013-12-30 05:43:00,
2013-12-29 23:53:00,18.0,6.0,30.22,ESE,110,0.0,6.0,60,0.00,,,0.00,,2013-12-30 05:53:00,